Time,TemperatureF,DewpointF,PressureIn,WindDirection,WindDirectionDegrees,WindSpeedMPH,WindSpeedGustMPH,Humidity,HourlyPrecipIn,Conditions,Clouds,dailyrainin,SoftwareType,DateUTC
2013-04-09 00:02:00,68.0,15.0,-100.00,SW,218,9.0,18.0,13,-99.99,,,-99.99,,2013-04-09 05:02:00,
2013-04-09 00:12:00,66.0,14.0,-100.00,SW,222,8.0,14.0,13,-99.99,,,-99.99,,2013-04-09 05:12:00,
2013-04-09 00:22:00,66.0,14.0,-100.00,SW,215,12.0,18.0,13,-99.99,,,-99.99,,2013-04-09 05:22:00,
2013-04-09 00:32:00,66.0,14.0,-100.00,SW,235,17.0,31.0,13,-99.99,,,-99.99,,2013-04-09 05:32:00,
2013-04-09 00:42:00,66.0,14.0,-100.00,WSW,247,18.0,36.0,13,-99.99,,,-99.99,,2013-04-09 05:42:00,
2013-04-09 00:52:00,66.0,16.0,-100.00,WSW,241,18.0,30.0,14,-99.99,,,-99.99,,2013-04-09 05:52:00,
2013-04-09 01:02:00,66.0,16.0,-100.00,WSW,241,18.0,30.0,14,-99.99,,,-99.99,,2013-04-09 06:02:00,
2013-04-09 01:12:00,66.0,16.0,-100.00,WSW,254,21.0,32.0,14,-99.99,,,-99.99,,2013-04-09 06:12:00,
2013-04-09 01:22:00,66.0,16.0,-100.00,WSW,257,15.0,28.0,14,-99.99,,,-99.99,,2013-04-09 06:22:00,
2013-04-09 01:32:00,66.0,16.0,-100.00,WSW,253,19.0,28.0,14,-99.99,,,-99.99,,2013-04-09 06:32:00,
2013-04-09 01:42:00,66.0,17.0,-100.00,WSW,247,22.0,32.0,15,-99.99,,,-99.99,,2013-04-09 06:42:00,
2013-04-09 01:52:00,64.0,16.0,-100.00,WSW,247,21.0,32.0,15,-99.99,,,-99.99,,2013-04-09 06:52:00,
2013-04-09 02:02:00,64.0,16.0,-100.00,WSW,244,19.0,70.0,15,-99.99,,,-99.99,,2013-04-09 07:02:00,
2013-04-09 02:13:00,64.0,17.0,-100.00,WSW,239,20.0,68.0,16,-99.99,,,-99.99,,2013-04-09 07:13:00,
2013-04-09 02:22:00,64.0,17.0,-100.00,SW,228,17.0,34.0,16,-99.99,,,-99.99,,2013-04-09 07:22:00,
2013-04-09 02:32:00,64.0,19.0,-100.00,SW,235,16.0,30.0,17,-99.99,,,-99.99,,2013-04-09 07:32:00,
2013-04-09 02:42:00,64.0,19.0,-100.00,SW,227,15.0,29.0,17,-99.99,,,-99.99,,2013-04-09 07:42:00,
2013-04-09 02:52:00,64.0,19.0,-100.00,SW,230,16.0,29.0,17,-99.99,,,-99.99,,2013-04-09 07:52:00,
2013-04-09 03:03:00,63.0,17.0,-100.00,SW,225,15.0,30.0,17,-99.99,,,-99.99,,2013-04-09 08:03:00,
2013-04-09 03:12:00,63.0,17.0,-100.00,WSW,253,15.0,32.0,17,-99.99,,,-99.99,,2013-04-09 08:12:00,
2013-04-09 03:22:00,63.0,17.0,-100.00,SW,235,24.0,38.0,17,-99.99,,,-99.99,,2013-04-09 08:22:00,
2013-04-09 03:32:00,63.0,17.0,-100.00,SW,232,18.0,35.0,17,-99.99,,,-99.99,,2013-04-09 08:32:00,
2013-04-09 03:42:00,63.0,17.0,-100.00,SW,227,15.0,29.0,17,-99.99,,,-99.99,,2013-04-09 08:42:00,
2013-04-09 03:52:00,63.0,19.0,-100.00,SW,232,19.0,36.0,18,-99.99,,,-99.99,,2013-04-09 08:52:00,
2013-04-09 04:02:00,61.0,17.0,-100.00,SW,223,16.0,34.0,18,-99.99,,,-99.99,,2013-04-09 09:02:00,
2013-04-09 04:12:00,61.0,18.0,-100.00,SW,226,15.0,27.0,19,-99.99,,,-99.99,,2013-04-09 09:12:00,
2013-04-09 04:22:00,61.0,19.0,-100.00,SW,217,18.0,35.0,20,-99.99,,,-99.99,,2013-04-09 09:22:00,
2013-04-09 04:33:00,61.0,19.0,-100.00,SW,222,14.0,25.0,20,-99.99,,,-99.99,,2013-04-09 09:33:00,
2013-04-09 04:43:00,61.0,19.0,-100.00,SW,219,18.0,37.0,20,-99.99,,,-99.99,,2013-04-09 09:43:00,
2013-04-09 04:52:00,61.0,19.0,-100.00,SW,232,15.0,27.0,20,-99.99,,,-99.99,,2013-04-09 09:52:00,
2013-04-09 05:03:00,61.0,19.0,-100.00,SW,231,17.0,35.0,20,-99.99,,,-99.99,,2013-04-09 10:03:00,
2013-04-09 05:13:00,59.0,18.0,-100.00,SSW,196,18.0,32.0,20,-99.99,,,-99.99,,2013-04-09 10:13:00,
2013-04-09 05:23:00,59.0,18.0,-100.00,SW,225,20.0,40.0,20,-99.99,,,-99.99,,2013-04-09 10:23:00,
2013-04-09 05:33:00,59.0,18.0,-100.00,SSW,211,28.0,47.0,20,-99.99,,,-99.99,,2013-04-09 10:33:00,
2013-04-09 05:42:00,59.0,19.0,-100.00,SSW,204,22.0,37.0,21,-99.99,,,-99.99,,2013-04-09 10:42:00,
2013-04-09 05:52:00,59.0,20.0,-100.00,SSW,209,24.0,39.0,22,-99.99,,,-99.99,,2013-04-09 10:52:00,
2013-04-09 06:02:00,57.0,19.0,-100.00,SSW,211,22.0,40.0,22,-99.99,,,-99.99,,2013-04-09 11:02:00,
2013-04-09 06:12:00,57.0,20.0,-100.00,SW,229,18.0,37.0,23,-99.99,,,-99.99,,2013-04-09 11:12:00,
2013-04-09 06:22:00,57.0,20.0,-100.00,SSW,212,23.0,40.0,23,-99.99,,,-99.99,,2013-04-09 11:22:00,
2013-04-09 06:32:00,57.0,21.0,-100.00,SSW,210,28.0,48.0,24,-99.99,,,-99.99,,2013-04-09 11:32:00,
2013-04-09 06:42:00,57.0,23.0,-100.00,SSW,212,27.0,41.0,26,-99.99,,,-99.99,,2013-04-09 11:42:00,
2013-04-09 06:52:00,55.0,23.0,-100.00,SW,214,28.0,43.0,28,-99.99,,,-99.99,,2013-04-09 11:52:00,
2013-04-09 07:02:00,55.0,24.0,-100.00,SSW,209,25.0,45.0,29,-99.99,,,-99.99,,2013-04-09 12:02:00,
2013-04-09 07:12:00,55.0,24.0,-100.00,SW,217,26.0,40.0,30,-99.99,,,-99.99,,2013-04-09 12:12:00,
2013-04-09 07:22:00,55.0,26.0,-100.00,SW,215,15.0,30.0,32,-99.99,,,-99.99,,2013-04-09 12:22:00,
2013-04-09 07:32:00,54.0,25.0,-100.00,SW,226,13.0,23.0,33,-99.99,,,-99.99,,2013-04-09 12:32:00,
2013-04-09 07:42:00,54.0,25.0,-100.00,SW,225,15.0,26.0,33,-99.99,,,-99.99,,2013-04-09 12:42:00,
2013-04-09 07:52:00,54.0,25.0,-100.00,SW,236,17.0,32.0,33,-99.99,,,-99.99,,2013-04-09 12:52:00,
2013-04-09 08:02:00,54.0,26.0,-100.00,SW,234,17.0,33.0,34,-99.99,,,-99.99,,2013-04-09 13:02:00,
2013-04-09 08:12:00,54.0,26.0,-100.00,WSW,256,17.0,23.0,34,-99.99,,,-99.99,,2013-04-09 13:12:00,
2013-04-09 08:23:00,54.0,26.0,-100.00,WSW,237,18.0,32.0,34,-99.99,,,-99.99,,2013-04-09 13:23:00,
2013-04-09 08:32:00,54.0,26.0,-100.00,SW,235,17.0,28.0,34,-99.99,,,-99.99,,2013-04-09 13:32:00,
2013-04-09 08:42:00,54.0,26.0,-100.00,SW,233,18.0,33.0,34,-99.99,,,-99.99,,2013-04-09 13:42:00,
2013-04-09 08:52:00,55.0,28.0,-100.00,SW,233,17.0,26.0,34,-99.99,,,-99.99,,2013-04-09 13:52:00,
2013-04-09 09:03:00,54.0,25.0,-100.00,WSW,237,20.0,34.0,33,-99.99,,,-99.99,,2013-04-09 14:03:00,
2013-04-09 09:12:00,55.0,27.0,-100.00,SW,235,20.0,26.0,33,-99.99,,,-99.99,,2013-04-09 14:12:00,
2013-04-09 09:22:00,55.0,26.0,-100.00,SW,232,18.0,28.0,32,-99.99,,,-99.99,,2013-04-09 14:22:00,
2013-04-09 09:32:00,55.0,26.0,-100.00,WSW,237,17.0,32.0,32,-99.99,,,-99.99,,2013-04-09 14:32:00,
2013-04-09 09:42:00,55.0,25.0,-100.00,SW,232,16.0,29.0,31,-99.99,,,-99.99,,2013-04-09 14:42:00,
2013-04-09 09:52:00,57.0,26.0,-100.00,SW,225,12.0,24.0,30,-99.99,,,-99.99,,2013-04-09 14:52:00,
2013-04-09 10:02:00,57.0,25.0,-100.00,SW,228,13.0,20.0,29,-99.99,,,-99.99,,2013-04-09 15:02:00,
2013-04-09 10:12:00,57.0,24.0,-100.00,SSW,209,21.0,28.0,28,-99.99,,,-99.99,,2013-04-09 15:12:00,
2013-04-09 10:22:00,57.0,24.0,-100.00,SSW,213,25.0,35.0,27,-99.99,,,-99.99,,2013-04-09 15:22:00,
2013-04-09 10:33:00,59.0,24.0,-100.00,SW,214,20.0,30.0,26,-99.99,,,-99.99,,2013-04-09 15:33:00,
2013-04-09 10:43:00,59.0,23.0,-100.00,SW,214,17.0,30.0,25,-99.99,,,-99.99,,2013-04-09 15:43:00,
2013-04-09 10:53:00,59.0,21.0,-100.00,SSW,210,24.0,42.0,23,-99.99,,,-99.99,,2013-04-09 15:53:00,
2013-04-09 11:03:00,59.0,21.0,-100.00,SSW,210,24.0,42.0,23,-99.99,,,-99.99,,2013-04-09 16:03:00,
2013-04-09 11:13:00,59.0,20.0,-100.00,SSW,204,17.0,38.0,22,-99.99,,,-99.99,,2013-04-09 16:13:00,
2013-04-09 11:23:00,61.0,21.0,-100.00,SW,232,19.0,36.0,21,-99.99,,,-99.99,,2013-04-09 16:23:00,
2013-04-09 11:33:00,61.0,19.0,-100.00,SW,227,21.0,40.0,20,-99.99,,,-99.99,,2013-04-09 16:33:00,
2013-04-09 11:42:00,63.0,19.0,-100.00,SW,230,19.0,30.0,18,-99.99,,,-99.99,,2013-04-09 16:42:00,
2013-04-09 11:53:00,61.0,17.0,-100.00,WSW,238,21.0,42.0,18,-99.99,,,-99.99,,2013-04-09 16:53:00,
2013-04-09 12:02:00,61.0,17.0,-100.00,WSW,238,21.0,42.0,18,-99.99,,,-99.99,,2013-04-09 17:02:00,
2013-04-09 12:12:00,63.0,16.0,-100.00,SSW,208,17.0,33.0,16,-99.99,,,-99.99,,2013-04-09 17:12:00,
2013-04-09 12:23:00,63.0,16.0,-100.00,SW,235,19.0,37.0,16,-99.99,,,-99.99,,2013-04-09 17:23:00,
2013-04-09 12:32:00,63.0,16.0,-100.00,WSW,237,20.0,36.0,16,-99.99,,,-99.99,,2013-04-09 17:32:00,
2013-04-09 12:42:00,64.0,16.0,-100.00,SW,222,17.0,28.0,15,-99.99,,,-99.99,,2013-04-09 17:42:00,
2013-04-09 12:53:00,64.0,16.0,-100.00,SW,234,19.0,39.0,15,-99.99,,,-99.99,,2013-04-09 17:53:00,
2013-04-09 13:02:00,64.0,16.0,-100.00,SW,234,19.0,38.0,15,-99.99,,,-99.99,,2013-04-09 18:02:00,
2013-04-09 13:12:00,64.0,16.0,-100.00,WSW,240,16.0,24.0,15,-99.99,,,-99.99,,2013-04-09 18:12:00,
2013-04-09 13:22:00,64.0,16.0,-100.00,WSW,248,24.0,35.0,15,-99.99,,,-99.99,,2013-04-09 18:22:00,
2013-04-09 13:33:00,64.0,14.0,-100.00,SW,218,21.0,46.0,14,-99.99,,,-99.99,,2013-04-09 18:33:00,
2013-04-09 13:43:00,64.0,14.0,-100.00,WSW,239,22.0,37.0,14,-99.99,,,-99.99,,2013-04-09 18:43:00,
2013-04-09 13:52:00,64.0,14.0,-100.00,WSW,248,29.0,45.0,14,-99.99,,,-99.99,,2013-04-09 18:52:00,
2013-04-09 14:02:00,64.0,14.0,-100.00,WSW,248,29.0,45.0,14,-99.99,,,-99.99,,2013-04-09 19:02:00,
2013-04-09 14:12:00,64.0,14.0,-100.00,WSW,248,29.0,45.0,14,-99.99,,,-99.99,,2013-04-09 19:12:00,
2013-04-09 14:22:00,64.0,14.0,-100.00,SW,225,24.0,49.0,14,-99.99,,,-99.99,,2013-04-09 19:22:00,
2013-04-09 14:32:00,64.0,14.0,-100.00,SW,225,24.0,49.0,14,-99.99,,,-99.99,,2013-04-09 19:32:00,
2013-04-09 14:53:00,66.0,12.0,-100.00,SSW,209,33.0,55.0,12,-99.99,,,-99.99,,2013-04-09 19:53:00,
2013-04-09 15:02:00,66.0,12.0,-100.00,SW,215,20.0,36.0,12,-99.99,,,-99.99,,2013-04-09 20:02:00,
2013-04-09 15:12:00,70.0,15.0,-100.00,SSW,213,21.0,35.0,12,-99.99,,,-99.99,,2013-04-09 20:12:00,
2013-04-09 15:22:00,68.0,12.0,-100.00,SW,233,22.0,47.0,11,-99.99,,,-99.99,,2013-04-09 20:22:00,
2013-04-09 15:33:00,70.0,15.0,-100.00,SSW,213,18.0,36.0,12,-99.99,,,-99.99,,2013-04-09 20:33:00,
2013-04-09 15:43:00,70.0,13.0,-100.00,SSW,210,29.0,47.0,11,-99.99,,,-99.99,,2013-04-09 20:43:00,
2013-04-09 15:52:00,70.0,13.0,-100.00,SW,214,19.0,40.0,11,-99.99,,,-99.99,,2013-04-09 20:52:00,
2013-04-09 16:02:00,70.0,13.0,-100.00,SSW,200,22.0,37.0,11,-99.99,,,-99.99,,2013-04-09 21:02:00,
2013-04-09 16:13:00,70.0,13.0,-100.00,SSW,198,17.0,29.0,11,-99.99,,,-99.99,,2013-04-09 21:13:00,
2013-04-09 16:22:00,70.0,13.0,-100.00,SSW,198,17.0,29.0,11,-99.99,,,-99.99,,2013-04-09 21:22:00,
2013-04-09 16:33:00,70.0,13.0,-100.00,SSW,201,19.0,39.0,11,-99.99,,,-99.99,,2013-04-09 21:33:00,
2013-04-09 16:42:00,70.0,13.0,-100.00,SSW,201,19.0,39.0,11,-99.99,,,-99.99,,2013-04-09 21:42:00,
2013-04-09 16:53:00,68.0,20.0,-100.00,NW,318,18.0,28.0,16,-99.99,,,-99.99,,2013-04-09 21:53:00,
2013-04-09 17:03:00,68.0,20.0,-100.00,NW,318,18.0,28.0,16,-99.99,,,-99.99,,2013-04-09 22:03:00,
2013-04-09 17:12:00,66.0,20.0,-100.00,NNW,340,11.0,22.0,17,-99.99,,,-99.99,,2013-04-09 22:12:00,
2013-04-09 17:23:00,68.0,20.0,-100.00,North,356,9.0,17.0,16,-99.99,,,-99.99,,2013-04-09 22:23:00,
2013-04-09 17:33:00,68.0,22.0,-100.00,NW,314,17.0,27.0,17,-99.99,,,-99.99,,2013-04-09 22:33:00,
2013-04-09 17:42:00,68.0,23.0,-100.00,NNW,327,13.0,20.0,18,-99.99,,,-99.99,,2013-04-09 22:42:00,
2013-04-09 17:53:00,68.0,23.0,-100.00,NNW,337,11.0,16.0,18,-99.99,,,-99.99,,2013-04-09 22:53:00,
2013-04-09 18:03:00,66.0,23.0,-100.00,NNW,327,15.0,23.0,19,-99.99,,,-99.99,,2013-04-09 23:03:00,
2013-04-09 18:12:00,64.0,26.0,-100.00,NW,320,18.0,25.0,23,-99.99,,,-99.99,,2013-04-09 23:12:00,
2013-04-09 18:22:00,63.0,26.0,-100.00,NNW,338,22.0,29.0,25,-99.99,,,-99.99,,2013-04-09 23:22:00,
2013-04-09 18:32:00,61.0,26.0,-100.00,NNW,328,20.0,27.0,26,-99.99,,,-99.99,,2013-04-09 23:32:00,
2013-04-09 18:42:00,61.0,27.0,-100.00,NW,324,21.0,27.0,27,-99.99,,,-99.99,,2013-04-09 23:42:00,
2013-04-09 18:52:00,61.0,27.0,-100.00,NNW,337,24.0,32.0,27,-99.99,,,-99.99,,2013-04-09 23:52:00,
2013-04-09 19:03:00,59.0,26.0,-100.00,NNW,331,20.0,26.0,28,-99.99,,,-99.99,,2013-04-10 00:03:00,
2013-04-09 19:12:00,59.0,26.0,-100.00,NNW,331,20.0,26.0,28,-99.99,,,-99.99,,2013-04-10 00:12:00,
2013-04-09 19:23:00,57.0,26.0,-100.00,NNW,329,24.0,30.0,30,-99.99,,,-99.99,,2013-04-10 00:23:00,
2013-04-09 19:32:00,57.0,27.0,-100.00,NNW,330,25.0,29.0,31,-99.99,,,-99.99,,2013-04-10 00:32:00,
2013-04-09 19:42:00,57.0,28.0,-100.00,NW,324,25.0,32.0,32,-99.99,,,-99.99,,2013-04-10 00:42:00,
2013-04-09 19:52:00,55.0,27.0,-100.00,NW,326,24.0,33.0,33,-99.99,,,-99.99,,2013-04-10 00:52:00,
2013-04-09 20:02:00,55.0,28.0,-100.00,NW,321,28.0,34.0,34,-99.99,,,-99.99,,2013-04-10 01:02:00,
2013-04-09 20:12:00,54.0,27.0,-100.00,NW,319,28.0,34.0,35,-99.99,,,-99.99,,2013-04-10 01:12:00,
2013-04-09 20:23:00,54.0,27.0,-100.00,NNW,327,25.0,32.0,36,-99.99,,,-99.99,,2013-04-10 01:23:00,
2013-04-09 20:32:00,54.0,28.0,-100.00,NNW,327,26.0,33.0,37,-99.99,,,-99.99,,2013-04-10 01:32:00,
2013-04-09 20:42:00,54.0,29.0,-100.00,NNW,329,22.0,29.0,38,-99.99,,,-99.99,,2013-04-10 01:42:00,
2013-04-09 20:52:00,52.0,27.0,-100.00,NNW,338,22.0,27.0,38,-99.99,,,-99.99,,2013-04-10 01:52:00,
2013-04-09 21:02:00,52.0,27.0,-100.00,NNW,337,21.0,25.0,38,-99.99,,,-99.99,,2013-04-10 02:02:00,
2013-04-09 21:12:00,52.0,26.0,-100.00,NNW,329,23.0,27.0,37,-99.99,,,-99.99,,2013-04-10 02:12:00,
2013-04-09 21:22:00,52.0,26.0,-100.00,NNW,338,20.0,26.0,37,-99.99,,,-99.99,,2013-04-10 02:22:00,
2013-04-09 21:32:00,50.0,25.0,-100.00,NNW,334,20.0,27.0,37,-99.99,,,-99.99,,2013-04-10 02:32:00,
2013-04-09 21:43:00,50.0,26.0,-100.00,NNW,335,23.0,41.0,39,-99.99,,,-99.99,,2013-04-10 02:43:00,
2013-04-09 21:52:00,50.0,26.0,-100.00,NNW,336,22.0,28.0,39,-99.99,,,-99.99,,2013-04-10 02:52:00,
2013-04-09 22:02:00,50.0,26.0,-100.00,NW,324,22.0,27.0,39,-99.99,,,-99.99,,2013-04-10 03:02:00,
2013-04-09 22:12:00,50.0,26.0,-100.00,NW,321,22.0,28.0,39,-99.99,,,-99.99,,2013-04-10 03:12:00,
2013-04-09 22:22:00,50.0,25.0,-100.00,NNW,329,20.0,28.0,38,-99.99,,,-99.99,,2013-04-10 03:22:00,
2013-04-09 22:33:00,50.0,25.0,-100.00,NNW,332,23.0,28.0,37,-99.99,,,-99.99,,2013-04-10 03:33:00,
2013-04-09 22:43:00,50.0,23.0,-100.00,NNW,334,23.0,30.0,35,-99.99,,,-99.99,,2013-04-10 03:43:00,
2013-04-09 22:52:00,48.0,21.0,-100.00,NNW,336,21.0,26.0,34,-99.99,,,-99.99,,2013-04-10 03:52:00,
2013-04-09 23:03:00,48.0,21.0,-100.00,NNW,336,21.0,26.0,34,-99.99,,,-99.99,,2013-04-10 04:03:00,
2013-04-09 23:13:00,48.0,21.0,-100.00,NNW,346,22.0,26.0,34,-99.99,,,-99.99,,2013-04-10 04:13:00,
2013-04-09 23:23:00,48.0,20.0,-100.00,NNW,345,21.0,30.0,33,-99.99,,,-99.99,,2013-04-10 04:23:00,
2013-04-09 23:33:00,48.0,20.0,-100.00,NNW,343,21.0,26.0,32,-99.99,,,-99.99,,2013-04-10 04:33:00,
2013-04-09 23:42:00,48.0,20.0,-100.00,NNW,340,22.0,27.0,32,-99.99,,,-99.99,,2013-04-10 04:42:00,
2013-04-09 23:52:00,48.0,20.0,-100.00,NNW,342,20.0,25.0,32,-99.99,,,-99.99,,2013-04-10 04:52:00,